Terminal Aerodrome Forecast
Issued by NWS Mt. Holly, NJ

Home | Current Version | Previous Version | Text Only | Print | Product List | Glossary On
Versions: 1 2 3 4 5 6 7 8 9 10 11 12 13 14
000
FTUS41 KPHI 312335
TAFACY
TAF
KACY 312335Z 0100/0124 23006KT P6SM SKC
     FM011300 34003KT P6SM SKC
     FM011800 13006KT P6SM SKC=

USA.gov is the U.S. government's official web portal to all federal, state and local government web resources and services.